When you browse on this site, cookies collect data to enhance your experience and personalize the content and advertising you see.
Visit our Privacy Policy to learn more. By continuing to use the site, you agree to this use of cookies and data.
  • In Czech Republic
  • List of Countries
  • For 7 days
  • Water Temperature
  • Weather Map
  • Weather Widgets
  • user-avatar
    Login

    Hourly Weather Sankt Polten

    Today, 23 September, Monday

    Time Temperature Precipitation Wind Pressure Humidity
    00:00 +14°C° 0 mm 1 mps 733 mmHg 69%
    01:00 +14°C° 0 mm 1 mps 732 mmHg 71%
    02:00 +12°C° 0 mm 0 mps 732 mmHg 72%
    03:00 +12°C° 0 mm 0 mps 732 mmHg 73%
    04:00 +12°C° 0 mm 0 mps 732 mmHg 74%
    05:00 +12°C° 0 mm 0 mps 732 mmHg 74%
    06:00 +13°C° 0 mm 0 mps 732 mmHg 74%
    07:00 +14°C° 0 mm 0 mps 733 mmHg 73%
    08:00 +16°C° 0 mm 1 mps 733 mmHg 71%
    09:00 +18°C° 0 mm 2 mps 733 mmHg 69%
    10:00 +19°C° 0 mm 2 mps 733 mmHg 66%
    11:00 +19°C° 0 mm 3 mps 733 mmHg 72%
    12:00 +18°C° 0 mm 3 mps 734 mmHg 77%
    13:00 +18°C° 0 mm 4 mps 734 mmHg 82%
    14:00 +17°C° 0.4 mm 4 mps 734 mmHg 86%
    15:00 +15°C° 0.4 mm 4 mps 734 mmHg 89%
    16:00 +14°C° 0.4 mm 4 mps 734 mmHg 93%
    17:00 +14°C° 0.4 mm 4 mps 734 mmHg 93%
    18:00 +13°C° 0.4 mm 4 mps 735 mmHg 94%
    19:00 +13°C° 0.4 mm 3 mps 735 mmHg 95%
    20:00 +13°C° 0.5 mm 3 mps 735 mmHg 95%
    21:00 +13°C° 0.5 mm 3 mps 735 mmHg 95%
    22:00 +13°C° 0.5 mm 3 mps 736 mmHg 95%
    23:00 +13°C° 0.6 mm 3 mps 736 mmHg 96%

    Tomorrow, 24 September, Tuesday

    Time Temperature Precipitation Wind Pressure Humidity
    00:00 +13°C° 0.6 mm 3 mps 736 mmHg 96%
    01:00 +14°C° 0.6 mm 2 mps 736 mmHg 96%
    02:00 +14°C° 0.5 mm 2 mps 736 mmHg 96%
    03:00 +14°C° 0.5 mm 2 mps 735 mmHg 96%
    04:00 +14°C° 0.5 mm 2 mps 735 mmHg 96%
    05:00 +14°C° 0.2 mm 2 mps 735 mmHg 96%
    06:00 +14°C° 0.2 mm 2 mps 735 mmHg 96%
    07:00 +14°C° 0.2 mm 2 mps 735 mmHg 96%
    08:00 +14°C° 0 mm 2 mps 735 mmHg 94%
    09:00 +15°C° 0 mm 2 mps 735 mmHg 91%
    10:00 +15°C° 0 mm 2 mps 735 mmHg 89%
    11:00 +18°C° 0 mm 1 mps 735 mmHg 81%
    12:00 +19°C° 0 mm 1 mps 734 mmHg 74%
    13:00 +21°C° 0 mm 1 mps 734 mmHg 66%
    14:00 +21°C° 0 mm 1 mps 733 mmHg 66%
    15:00 +21°C° 0 mm 1 mps 733 mmHg 66%
    16:00 +21°C° 0 mm 1 mps 733 mmHg 66%
    17:00 +19°C° 0 mm 1 mps 733 mmHg 74%
    18:00 +15°C° 0 mm 0 mps 732 mmHg 81%
    19:00 +14°C° 0 mm 0 mps 732 mmHg 88%
    20:00 +15°C° 0 mm 1 mps 733 mmHg 88%
    21:00 +15°C° 0 mm 1 mps 733 mmHg 87%
    22:00 +15°C° 0 mm 1 mps 733 mmHg 87%
    23:00 +15°C° 0 mm 1 mps 733 mmHg 88%

    Day after tomorrow, 25 September, Wednesday

    Time Temperature Precipitation Wind Pressure Humidity
    00:00 +14°C° 0 mm 1 mps 733 mmHg 89%
    01:00 +14°C° 0 mm 1 mps 732 mmHg 90%
    02:00 +14°C° 0 mm 1 mps 732 mmHg 89%
    03:00 +14°C° 0 mm 1 mps 732 mmHg 88%
    04:00 +15°C° 0 mm 1 mps 732 mmHg 86%
    05:00 +15°C° 0 mm 1 mps 732 mmHg 86%
    06:00 +15°C° 0 mm 1 mps 732 mmHg 85%
    07:00 +15°C° 0 mm 1 mps 732 mmHg 84%
    08:00 +18°C° 0 mm 1 mps 732 mmHg 77%
    09:00 +19°C° 0 mm 1 mps 732 mmHg 71%
    10:00 +21°C° 0 mm 1 mps 733 mmHg 64%
    11:00 +19°C° 0.3 mm 3 mps 732 mmHg 66%
    12:00 +19°C° 0.3 mm 4 mps 732 mmHg 69%
    13:00 +17°C° 0.3 mm 5 mps 732 mmHg 71%
    14:00 +17°C° 0.1 mm 5 mps 732 mmHg 71%
    15:00 +17°C° 0.1 mm 4 mps 732 mmHg 71%
    16:00 +17°C° 0.1 mm 3 mps 732 mmHg 72%
    17:00 +16°C° 0.1 mm 3 mps 733 mmHg 75%
    18:00 +15°C° 0.1 mm 2 mps 733 mmHg 79%
    19:00 +14°C° 0.1 mm 2 mps 733 mmHg 82%
    20:00 +14°C° 0 mm 2 mps 734 mmHg 82%
    21:00 +14°C° 0 mm 2 mps 734 mmHg 81%
    22:00 +14°C° 0 mm 2 mps 734 mmHg 81%
    23:00 +14°C° 0 mm 2 mps 734 mmHg 82%

    26 September, Thursday

    Time Temperature Precipitation Wind Pressure Humidity
    00:00 +13°C° 0 mm 2 mps 734 mmHg 83%
    01:00 +13°C° 0 mm 2 mps 734 mmHg 83%
    02:00 +13°C° 0 mm 2 mps 735 mmHg 84%
    03:00 +13°C° 0 mm 2 mps 735 mmHg 85%
    04:00 +13°C° 0 mm 1 mps 735 mmHg 86%
    05:00 +13°C° 0 mm 2 mps 735 mmHg 85%
    06:00 +13°C° 0 mm 2 mps 735 mmHg 85%
    07:00 +13°C° 0 mm 2 mps 735 mmHg 84%
    08:00 +14°C° 0 mm 3 mps 736 mmHg 79%
    09:00 +16°C° 0 mm 3 mps 736 mmHg 75%
    10:00 +17°C° 0 mm 4 mps 736 mmHg 70%
    11:00 +17°C° 0.1 mm 4 mps 736 mmHg 72%
    12:00 +17°C° 0.1 mm 4 mps 736 mmHg 73%
    13:00 +17°C° 0.1 mm 4 mps 736 mmHg 74%
    14:00 +15°C° 0 mm 4 mps 736 mmHg 76%
    15:00 +15°C° 0 mm 4 mps 736 mmHg 77%
    16:00 +15°C° 0 mm 4 mps 736 mmHg 79%
    17:00 +14°C° 0 mm 3 mps 736 mmHg 81%
    18:00 +14°C° 0 mm 3 mps 737 mmHg 84%
    19:00 +14°C° 0 mm 2 mps 737 mmHg 87%
    20:00 +14°C° 0 mm 2 mps 737 mmHg 87%
    21:00 +14°C° 0 mm 2 mps 738 mmHg 88%
    22:00 +13°C° 0 mm 2 mps 738 mmHg 89%
    23:00 +13°C° 0 mm 2 mps 738 mmHg 89%

    27 September, Friday

    Time Temperature Precipitation Wind Pressure Humidity
    00:00 +13°C° 0 mm 1 mps 738 mmHg 89%
    01:00 +13°C° 0 mm 1 mps 738 mmHg 89%
    02:00 +14°C° 0.1 mm 1 mps 738 mmHg 90%
    03:00 +14°C° 0.1 mm 1 mps 738 mmHg 90%
    04:00 +14°C° 0.1 mm 1 mps 738 mmHg 91%
    05:00 +14°C° 0 mm 1 mps 738 mmHg 90%
    06:00 +14°C° 0 mm 1 mps 737 mmHg 90%
    07:00 +15°C° 0 mm 1 mps 737 mmHg 89%
    08:00 +16°C° 0 mm 1 mps 737 mmHg 82%
    09:00 +19°C° 0 mm 1 mps 738 mmHg 76%
    10:00 +19°C° 0 mm 0 mps 738 mmHg 69%
    11:00 +22°C° 0 mm 1 mps 737 mmHg 66%
    12:00 +23°C° 0 mm 1 mps 737 mmHg 62%
    13:00 +24°C° 0 mm 1 mps 737 mmHg 59%
    14:00 +24°C° 0.2 mm 1 mps 736 mmHg 62%
    15:00 +23°C° 0.2 mm 1 mps 736 mmHg 65%
    16:00 +21°C° 0.2 mm 0 mps 736 mmHg 68%
    17:00 +21°C° 0 mm 1 mps 736 mmHg 74%
    18:00 +19°C° 0 mm 1 mps 736 mmHg 80%
    19:00 +16°C° 0 mm 1 mps 736 mmHg 86%
    20:00 +16°C° 0.1 mm 1 mps 736 mmHg 86%
    21:00 +16°C° 0.1 mm 1 mps 736 mmHg 87%
    22:00 +16°C° 0.1 mm 1 mps 736 mmHg 88%
    23:00 +16°C° 0.4 mm 1 mps 736 mmHg 89%

    28 September, Saturday

    Time Temperature Precipitation Wind Pressure Humidity
    00:00 +16°C° 0.4 mm 1 mps 736 mmHg 90%
    01:00 +16°C° 0.4 mm 1 mps 736 mmHg 92%
    02:00 +16°C° 0.2 mm 1 mps 736 mmHg 92%
    03:00 +15°C° 0.2 mm 1 mps 736 mmHg 93%
    04:00 +15°C° 0.2 mm 1 mps 736 mmHg 94%
    05:00 +15°C° 0.1 mm 1 mps 736 mmHg 94%
    06:00 +16°C° 0.1 mm 1 mps 736 mmHg 94%
    07:00 +16°C° 0.1 mm 1 mps 736 mmHg 94%
    08:00 +16°C° 0.4 mm 1 mps 736 mmHg 93%
    09:00 +16°C° 0.4 mm 1 mps 737 mmHg 91%
    10:00 +18°C° 0.4 mm 1 mps 737 mmHg 90%
    11:00 +18°C° 0.3 mm 1 mps 737 mmHg 90%
    12:00 +18°C° 0.3 mm 1 mps 736 mmHg 90%
    13:00 +18°C° 0.3 mm 1 mps 736 mmHg 89%
    14:00 +18°C° 0.1 mm 1 mps 736 mmHg 87%
    15:00 +17°C° 0.1 mm 2 mps 736 mmHg 85%
    16:00 +17°C° 0.1 mm 2 mps 736 mmHg 83%
    17:00 +16°C° 0 mm 2 mps 736 mmHg 84%
    18:00 +16°C° 0 mm 2 mps 736 mmHg 86%
    19:00 +15°C° 0 mm 2 mps 737 mmHg 87%
    20:00 +15°C° 0 mm 2 mps 737 mmHg 88%
    21:00 +14°C° 0 mm 2 mps 737 mmHg 89%
    22:00 +14°C° 0 mm 2 mps 738 mmHg 89%
    23:00 +13°C° 0 mm 1 mps 737 mmHg 89%
    Show more